Location: Unspecified
(51.0000°N, 12.0000°E)
Time: 23:08:35
(UTC+01:00)

ISS - Pass Details

Date: 27 November 2020
Orbit: 418 x 419 km, 51.6° (Epoch: 18 January)

Event Time Altitude Azimuth Distance (km) Brightness Sun altitude
Rises 17:12:20 0° 242° (WSW) 2,362 2.4 -9.3°
Reaches altitude 10° 17:14:26 10° 239° (WSW) 1,500 0.6 -9.6°
Maximum altitude 17:17:46 60° 159° (SSE) 488 -3.5 -10.1°
Enters shadow 17:20:21 15° 82° (E) 1,213 -2.1 -10.5°
